sat.trackr.live / text

‹ back to catalog

STARLINK-33853

NORAD 63684 · 2025-085W

PAYLOAD ACTIVE UNKNOWN

§ Identity

Operator
Country
US
Launch date
2025-04-28
Launch site
AFETR
Launch vehicle
Mass (kg)
RCS (m²)

Purposes: comms

External: N2YO · Heavens-Above · Gunter

§ Orbital elements

Epoch: 2026-05-25T04:35:20.875776Z

Period
94.27 min
Inclination
43.0026°
Eccentricity
0.0001076
Mean motion
15.27582366 rev/d
Perigee alt
482.3 km
Apogee alt
483.8 km
Semi-major
6,861.2 km
B*
3.8464e-4
RAAN
318.5452°
Arg perigee
272.3942°
Mean anomaly
87.6786°
Rev number
6,057

§ Raw data

STARLINK-338531 63684U 25085W   26145.19121384  .00010338  00000+0  38464-3 0  99962 63684  43.0026 318.5452 0001076 272.3942  87.6786 15.27582366 60570

JSON: /api/v1/satellites/63684 · /tle

For live sub-satellite position, see the globe view (requires WebGL).

§ Visibility from observer

Set your observer location to see the next 7 days of passes ≥ 10°. The values pass through the URL so the page stays shareable.

No JS? Fill the form by hand. The geolocation button needs JavaScript.